Zurück zum Katalog

LES 5

AktivMilitärMEO
NORAD 2866·PAYLOAD·🇺🇸 United States

Gestartet Jul 1, 1967 von Cape Canaveral Space Force Station

Loading…

Nächste Überflüge (nächste 24 Stunden)

TLE

AktuellSource: Space-Track

Epoche: Sep 14, 2026, 14:08 UTC

1 02866U 67066E   26257.58948774 -.00000123  00000-0  00000-0 0  9998
2 02866   2.8253  93.7593 0051975 214.6940 329.7386  1.09426218132011

Verfolge LES 5 in Echtzeit mit AllMySat

Download on the App Store